Location: Bennemühlen
(52.5740°N, 9.7135°E)
Time: 02:19:30
(UTC+00:00)

A-11 Canister half - Pass Details

Date: 25 February 2026
Orbit: 1513 x 1687 km, 47.2° (Epoch: 13 March)

Event Time Altitude Azimuth Distance (km) Brightness Sun altitude
Rises 17:46:29 0° 212° (SSW) 4,922 12.2 -8.9°
Reaches altitude 10° 17:49:59 10° 204° (SSW) 3,943 11.5 -9.4°
Maximum altitude 17:58:50 36° 143° (SE) 2,449 9.8 -10.8°
Enters shadow 18:06:22 14° 87° (E) 3,590 10.3 -11.9°
Drops below altitude 10° 18:07:37 10° 82° (E) 3,920 - -12.1°
Sets 18:11:04 0° 75° (ENE) 4,891 - -12.6°
